To NAV CANADA Home Page Login to a new session Search on AWWS site Feedback and Comments Disclaimer Vers la page française équivalente Tips FAQ What's new on the site To the Forecasts and Observations / NOTAM section To "File a Flight Plan" website Publications and other links Update of the User's profile FIC Telephone Numbers My Weather Data Folder Route Weather Data Regional Weather Data Local Weather Data To the Forecasts and Observations / NOTAM section
Request Generated 10/17/2017 at 01:57:34 UTC . Weather information available at that time is displayed.

METAR/TAF

MAKKOVIK/NL    

LWIS CYFT 170100Z AUTO 25011KT 02/M04 A2974=
LWIS CYFT 170000Z AUTO 28009G17KT 02/M05 A2972=
LWIS CYFT 162300Z AUTO 27011KT 02/M05 A2971=

CYFT - No TAF is issued for this station

Your time UTC time
Weather data provided by Environment Canada and NAV CANADA